Weather History for EGWU - April, 2014

Change the Weather History Date:

Saturday, April 12, 2014

  Actual Average Record
Temperature  
Mean Temperature 48 °F -  
Max Temperature 56 °F 58 °F 64 °F (2007)
Min Temperature 40 °F 43 °F 28 °F (2003)
Degree Days  
Heating Degree Days 17    
Moisture  
Dew Point 39 °F    
Average Humidity 66    
Maximum Humidity 87    
Minimum Humidity 40    
Precipitation  
Precipitation 0.00 in - - ()
Sea Level Pressure  
Sea Level Pressure 30.09 in    
Wind  
Wind Speed 6 mph ()    
Max Wind Speed 17 mph    
Max Gust Speed -    
Visibility 10.7 miles    
Events      
Averages and records for this station are not official NWS values.
T = Trace of Precipitation, MM = Missing Value Source: Averaged Metar Reports

Daily Weather History Graph

Daily Weather History Graph

Search for Another Location

Airport or City:

Trip Planner

Search our weather history database for the weather conditions in past years. The results will help you decide how hot, cold, wet, or windy it might be!

Date:

Astronomy

Apr. 12, 2014 Rise Set
Actual Time 6:12 AM BST 7:53 PM BST
Civil Twilight 5:37 AM BST 8:28 PM BST
Nautical Twilight 4:54 AM BST 9:11 PM BST
Astronomical Twilight 4:06 AM BST 10:00 PM BST
Moon 5:00 PM BST (4/12) 4:51 AM BST (4/12)
Length of Visible Light 14h 50m
Length of Day
13h 40m
Waxing Gibbous, 91% of the Moon is Illuminated
Apr 12
Waxing Gibbous
Apr 15
Full
Apr 22
Last Quarter
Apr 29
New
May 7
First Quarter

Hourly Weather History & Observations

Time (BST) Temp. Windchill Dew Point Humidity Pressure Visibility Wind Dir Wind Speed Gust Speed Precip Events Conditions
12:00 AM 45 °F - 38 °F 69% 30.17 in 15 mi NNW 2.3 mph - -   Scattered Clouds
12:50 AM 42.8 °F - 37.4 °F 81% 30.12 in 6.2 mi North 1.2 mph - N/A   Unknown
1:00 AM 43 °F - 38 °F 76% 30.15 in 12 mi North 1.2 mph - -  
1:50 AM 41.0 °F - 37.4 °F 87% 30.12 in 6.2 mi NNW 2.3 mph - N/A   Unknown
2:00 AM 41 °F - 38 °F 85% 30.15 in 8 mi NNW 2.3 mph - -  
2:50 AM 41.0 °F - 37.4 °F 87% 30.09 in 6.2 mi WNW 1.2 mph - N/A   Mostly Cloudy
3:00 AM 41 °F - 38 °F 83% 30.12 in 10 mi WNW 1.2 mph - -   Mostly Cloudy
3:50 AM 42.8 °F - 39.2 °F 87% 30.09 in 6.2 mi NNW 1.2 mph - N/A   Overcast
4:00 AM 42 °F - 39 °F 84% 30.12 in 14 mi NNW 1.2 mph - -   Overcast
4:50 AM 42.8 °F - 39.2 °F 87% 30.09 in 6.2 mi Calm Calm - N/A   Overcast
5:00 AM 42 °F - 39 °F 83% 30.12 in 8 mi Calm Calm - -   Overcast
5:50 AM 42.8 °F - 39.2 °F 87% 30.09 in 6.2 mi SSW 2.3 mph - N/A   Overcast
6:00 AM 43 °F - 39 °F 81% 30.11 in 7 mi SSW 2.3 mph - -   Overcast
6:50 AM 44.6 °F - 39.2 °F 81% 30.09 in - SW 2.3 mph - N/A   Clear
7:00 AM 44 °F - 39 °F 78% 30.11 in 7 mi SW 2.3 mph - -   Mostly Cloudy
7:50 AM 46.4 °F 45.2 °F 41.0 °F 81% 30.09 in - SSW 3.5 mph - N/A   Clear
8:00 AM 46 °F - 41 °F 76% 30.11 in 9 mi SSW 3.5 mph - -   Mostly Cloudy
8:50 AM 50.0 °F - 39.2 °F 66% 30.09 in - West 8.1 mph - N/A   Clear
9:00 AM 50 °F - 40 °F 59% 30.11 in 12 mi West 8.1 mph - -   Mostly Cloudy
9:50 AM 51.8 °F - 39.2 °F 62% 30.09 in - West 11.5 mph - N/A   Clear
10:00 AM 51 °F - 39 °F 54% 30.12 in 16 mi West 11.5 mph - -   Mostly Cloudy
10:50 AM 53.6 °F - 37.4 °F 54% 30.09 in - West 12.7 mph - N/A   Clear
11:00 AM 53 °F - 37 °F 43% 30.11 in 19 mi West 12.7 mph - -   Mostly Cloudy
11:50 AM 53.6 °F - 39.2 °F 58% 30.09 in 6.2 mi West 13.8 mph - N/A   Mostly Cloudy
12:00 PM 54 °F - 39 °F 46% 30.10 in 19 mi West 13.8 mph - -   Scattered Clouds
12:50 PM 55.4 °F - 39.2 °F 54% 30.06 in 6.2 mi West 16.1 mph - N/A   Mostly Cloudy
1:00 PM 56 °F - 39 °F 41% 30.08 in 22 mi West 16.1 mph - -   Scattered Clouds
1:50 PM 57.2 °F - 39.2 °F 51% 30.06 in 6.2 mi West 17.3 mph - N/A   Mostly Cloudy
2:00 PM 56 °F - 38 °F 40% 30.07 in 19 mi West 17.3 mph - -   Scattered Clouds
2:50 PM 55.4 °F - 39.2 °F 54% 30.04 in 6.2 mi West 15.0 mph - N/A   Mostly Cloudy
3:00 PM 56 °F - 38 °F 40% 30.06 in 19 mi West 15.0 mph - -   Scattered Clouds
3:50 PM 55.4 °F - 39.2 °F 54% 30.04 in 6.2 mi West 13.8 mph - N/A   Mostly Cloudy
4:00 PM 56 °F - 38 °F 40% 30.05 in 19 mi West 13.8 mph - -   Scattered Clouds
4:50 PM 55.4 °F - 39.2 °F 54% 30.04 in 6.2 mi West 15.0 mph - N/A   Mostly Cloudy
5:00 PM 55 °F - 38 °F 42% 30.05 in 25 mi West 15.0 mph - -   Mostly Cloudy
5:50 PM 55.4 °F - 39.2 °F 54% 30.04 in 6.2 mi West 15.0 mph - N/A   Partly Cloudy
6:00 PM 55 °F - 38 °F 42% 30.06 in 19 mi West 15.0 mph - -   Scattered Clouds
6:50 PM 53.6 °F - 39.2 °F 58% 30.06 in 6.2 mi West 12.7 mph - N/A   Scattered Clouds
7:00 PM 54 °F - 40 °F 47% 30.07 in 19 mi West 12.7 mph - -   Scattered Clouds
7:50 PM 51.8 °F - 41.0 °F 67% 30.06 in 6.2 mi West 8.1 mph - N/A   Mostly Cloudy
8:00 PM 52 °F - 41 °F 57% 30.09 in 19 mi West 8.1 mph - -   Mostly Cloudy
8:50 PM 51.8 °F - 41.0 °F 67% 30.09 in 6.2 mi West 9.2 mph - N/A   Mostly Cloudy
9:00 PM 52 °F - 42 °F 58% 30.10 in 19 mi West 9.2 mph - -   Mostly Cloudy
9:50 PM 50.0 °F - 42.8 °F 76% 30.09 in 6.2 mi West 10.4 mph - N/A   Partly Cloudy
10:00 PM 50 °F - 43 °F 69% 30.11 in 16 mi West 10.4 mph - -   Scattered Clouds
10:50 PM 48.2 °F - 42.8 °F 82% 30.09 in 6.2 mi West 9.2 mph - N/A   Unknown
11:00 PM 48 °F - 43 °F 77% 30.11 in 14 mi West 9.2 mph - -  
11:50 PM 48.2 °F - 44.6 °F 87% 30.09 in 6.2 mi West 8.1 mph - N/A   Scattered Clouds